Starlink 1524

operational
NORAD ID: 46047 Int'l Des: 2020-055 Owner: SPXS Country: US Constellation: starlink
LEOCIRCULARSTARLINK_TYPE

关于 Starlink 1524

正在加载描述...

实时位置

正在加载3D地球...

即将过境

高度历史

Altitude vs Time

uPlot chart will show altitude changes over time

两行轨道根数

1 46047U 20055W 25304.36072859 .00003227 00000-0 23538-3 0 9995
2 46047 53.0545 337.2001 0001467 93.8887 266.2269 15.06406461289535
Epoch: Oct 31, 2025 • Age: 14 hours

当前状态

高度 566.7 km
速度 7.58 km/s
星下点 -53.20°S, 134.1°W
发射日期 Aug 7, 2020
运行时间 5.2 years
类型 internet

技术详情

分类 Payload
质量 260.00 kg
干质量 248.00 kg
总质量 260.00 kg
长度 0.20 m
直径 2.80 m
跨度 9.00 m
形状 Box + pan
制造商 SPXS
平台类型 Starlink
阶段状态 In Orbit
所有者/国家 SPXS/US

大型星座

Loading constellations...